Gwinner, ND

1:58 PM CDT on March 29, 2017 (GMT -0500)
Gwinner-melroe

Weather History for KGWR - January, 2013

Change the Weather History Date:

Sunday, January 20, 2013

  Actual Average (KP67) Record (KP67)
Temperature  
Mean Temperature 0 °F -  
Max Temperature 8 °F 13 °F 24 °F (1997)
Min Temperature -7 °F 0 °F -2 °F (1998)
Degree Days  
Heating Degree Days 64    
Moisture  
Dew Point -8 °F    
Average Humidity 63    
Maximum Humidity 78    
Minimum Humidity 52    
Precipitation  
Precipitation 0.00 in - - ()
Sea Level Pressure  
Sea Level Pressure 30.36 in    
Wind  
Wind Speed 14 mph (NW)    
Max Wind Speed 28 mph    
Max Gust Speed 33 mph    
Visibility 10 miles    
Events      
Averages and records for this station are not official NWS values.
T = Trace of Precipitation, MM = Missing Value Source: NWS Daily Summary

Daily Weather History Graph

Daily Weather History Graph

Search for Another Location

Airport or City:

Trip Planner

Search our weather history database for the weather conditions in past years. The results will help you decide how hot, cold, wet, or windy it might be!

Date:

Astronomy

Jan. 20, 2013 Rise Set
Actual Time 8:05 AM CST 5:18 PM CST
Civil Twilight 7:32 AM CST 5:51 PM CST
Nautical Twilight 6:55 AM CST 6:28 PM CST
Astronomical Twilight 6:19 AM CST 7:04 PM CST
Moon 12:21 PM CST (1/20) 2:37 AM CST (1/20)
Length of Visible Light 10h 19m
Length of Day
9h 12m
Waxing Gibbous, 66% of the Moon is Illuminated
Jan 20
Waxing Gibbous
Jan 26
Full
Feb 3
Last Quarter
Feb 10
New
Feb 17
First Quarter

Hourly Weather History & Observations

Time (CST) Temp. Windchill Dew Point Humidity Pressure Visibility Wind Dir Wind Speed Gust Speed Precip Events Conditions
12:15 AM 1.4 °F -16.1 °F -7.6 °F 66% 30.34 in 10.0 mi NW 12.7 mph - 0.00 in   Clear
12:35 AM 1.4 °F -16.9 °F -7.6 °F 66% 30.35 in 10.0 mi NW 13.8 mph - 0.00 in   Clear
12:55 AM 1.4 °F -16.1 °F -7.6 °F 66% 30.34 in 10.0 mi NW 12.7 mph - 0.00 in   Clear
1:15 AM 1.4 °F -13.5 °F -7.6 °F 66% 30.34 in 10.0 mi WNW 9.2 mph - 0.00 in   Clear
1:35 AM 1.4 °F -14.5 °F -7.6 °F 66% 30.34 in 10.0 mi NW 10.4 mph - 0.00 in   Clear
1:55 AM 1.4 °F -12.5 °F -7.6 °F 66% 30.34 in 10.0 mi NW 8.1 mph - 0.00 in   Clear
2:15 AM 1.4 °F -14.5 °F -7.6 °F 66% 30.34 in 10.0 mi NNW 10.4 mph - 0.00 in   Clear
2:35 AM 1.4 °F -14.5 °F -7.6 °F 66% 30.34 in 10.0 mi NW 10.4 mph - 0.00 in   Clear
2:55 AM 1.4 °F -12.5 °F -7.6 °F 66% 30.35 in 10.0 mi NW 8.1 mph - 0.00 in   Clear
3:15 AM 1.4 °F -15.3 °F -7.6 °F 66% 30.35 in 10.0 mi NW 11.5 mph - 0.00 in   Clear
3:35 AM 3.2 °F -12.2 °F -7.6 °F 61% 30.34 in 10.0 mi NW 10.4 mph - 0.00 in   Clear
3:55 AM 3.2 °F -9.1 °F -7.6 °F 61% 30.33 in 10.0 mi NW 6.9 mph - 0.00 in   Clear
4:15 AM 3.2 °F -9.1 °F -7.6 °F 61% 30.33 in 10.0 mi West 6.9 mph - 0.00 in   Clear
4:35 AM 3.2 °F -7.8 °F -5.8 °F 66% 30.33 in 10.0 mi West 5.8 mph - 0.00 in   Clear
4:55 AM 3.2 °F -7.8 °F -5.8 °F 66% 30.31 in 10.0 mi WNW 5.8 mph - 0.00 in   Clear
5:15 AM 3.2 °F -9.1 °F -5.8 °F 66% 30.32 in 10.0 mi West 6.9 mph - 0.00 in   Clear
5:35 AM 3.2 °F -9.1 °F -5.8 °F 66% 30.32 in 10.0 mi West 6.9 mph - 0.00 in   Clear
5:55 AM 3.2 °F -11.3 °F -5.8 °F 66% 30.32 in 10.0 mi WNW 9.2 mph - 0.00 in   Clear
6:15 AM 3.2 °F -12.2 °F -5.8 °F 66% 30.32 in 10.0 mi WNW 10.4 mph - 0.00 in   Clear
6:35 AM 3.2 °F -13.9 °F -5.8 °F 66% 30.33 in 10.0 mi West 12.7 mph - 0.00 in   Clear
6:55 AM 3.2 °F -10.3 °F -5.8 °F 66% 30.34 in 10.0 mi West 8.1 mph - 0.00 in   Clear
7:15 AM 3.2 °F -13.9 °F -4.0 °F 72% 30.35 in 10.0 mi West 12.7 mph 16.1 mph 0.00 in   Clear
7:35 AM 3.2 °F -12.2 °F -4.0 °F 72% 30.36 in 10.0 mi West 10.4 mph - 0.00 in   Mostly Cloudy
7:55 AM 3.2 °F -11.3 °F -4.0 °F 72% 30.36 in 4.0 mi West 9.2 mph - 0.00 in   Overcast
8:15 AM 3.2 °F -13.1 °F -2.2 °F 78% 30.35 in 4.0 mi West 11.5 mph - 0.00 in   Overcast
8:35 AM 5.0 °F -10.0 °F -2.2 °F 72% 30.36 in 7.0 mi West 10.4 mph - 0.00 in   Overcast
8:55 AM 5.0 °F -10.0 °F -0.4 °F 78% 30.36 in 9.0 mi West 10.4 mph - 0.00 in   Mostly Cloudy
9:15 AM 5.0 °F -11.6 °F -0.4 °F 78% 30.37 in 9.0 mi West 12.7 mph - 0.00 in   Mostly Cloudy
9:35 AM 5.0 °F -10.8 °F -0.4 °F 78% 30.38 in 10.0 mi West 11.5 mph - 0.00 in   Partly Cloudy
9:55 AM 6.8 °F -9.3 °F -0.4 °F 72% 30.38 in 10.0 mi WNW 12.7 mph - 0.00 in   Mostly Cloudy
10:15 AM 6.8 °F -12.4 °F -2.2 °F 67% 30.38 in 10.0 mi NW 18.4 mph 24.2 mph 0.00 in   Mostly Cloudy
10:35 AM 8.6 °F -10.0 °F -2.2 °F 62% 30.38 in 10.0 mi NW 18.4 mph - 0.00 in   Scattered Clouds
10:55 AM 8.6 °F -8.3 °F -0.4 °F 67% 30.39 in 10.0 mi WNW 15.0 mph - 0.00 in   Partly Cloudy
11:15 AM 8.6 °F -9.5 °F -2.2 °F 62% 30.39 in 10.0 mi NW 17.3 mph - 0.00 in   Scattered Clouds
11:35 AM 8.6 °F -9.5 °F -2.2 °F 62% 30.39 in 10.0 mi NW 17.3 mph - 0.00 in   Scattered Clouds
11:55 AM 8.6 °F -10.5 °F -2.2 °F 62% 30.38 in 10.0 mi NW 19.6 mph - 0.00 in   Scattered Clouds
12:15 PM 8.6 °F -11.9 °F -4.0 °F 57% 30.38 in 10.0 mi NW 23.0 mph 32.2 mph 0.00 in   Scattered Clouds
12:35 PM 8.6 °F -11.4 °F -4.0 °F 57% 30.38 in 10.0 mi NNW 21.9 mph - 0.00 in   Partly Cloudy
12:55 PM 8.6 °F -11.4 °F -4.0 °F 57% 30.39 in 9.0 mi NW 21.9 mph 27.6 mph 0.00 in   Scattered Clouds
1:15 PM 8.6 °F -11.0 °F -4.0 °F 57% 30.38 in 9.0 mi NW 20.7 mph 27.6 mph 0.00 in   Mostly Cloudy
1:55 PM 8.6 °F -13.4 °F -4.0 °F 57% 30.37 in 8.0 mi NNW 27.6 mph - 0.00 in   Scattered Clouds
2:15 PM 8.6 °F -11.9 °F -5.8 °F 52% 30.36 in 10.0 mi NNW 23.0 mph 29.9 mph 0.00 in   Partly Cloudy
2:35 PM 6.8 °F -15.1 °F -5.8 °F 56% 30.36 in 10.0 mi NW 25.3 mph 28.8 mph 0.00 in   Clear
2:55 PM 5.0 °F -15.7 °F -5.8 °F 61% 30.37 in 10.0 mi NW 20.7 mph 29.9 mph 0.00 in   Clear
3:15 PM 5.0 °F -15.7 °F -7.6 °F 56% 30.37 in 10.0 mi NW 20.7 mph 25.3 mph 0.00 in   Partly Cloudy
3:35 PM 5.0 °F -16.2 °F -7.6 °F 56% 30.38 in 10.0 mi NW 21.9 mph 26.5 mph 0.00 in   Clear
3:55 PM 5.0 °F -14.7 °F -7.6 °F 56% 30.37 in 10.0 mi NW 18.4 mph 27.6 mph 0.00 in   Clear
4:15 PM 3.2 °F -17.6 °F -9.4 °F 56% 30.37 in 10.0 mi NW 19.6 mph 24.2 mph 0.00 in   Clear
4:35 PM 3.2 °F -19.0 °F -7.6 °F 61% 30.37 in 10.0 mi WNW 23.0 mph - 0.00 in   Partly Cloudy
4:55 PM 3.2 °F -17.1 °F -9.4 °F 56% 30.37 in 10.0 mi NW 18.4 mph 23.0 mph 0.00 in   Clear
5:15 PM 1.4 °F -18.8 °F -9.4 °F 61% 30.37 in 10.0 mi NW 17.3 mph 21.9 mph 0.00 in   Clear
5:35 PM 1.4 °F -20.5 °F -9.4 °F 61% 30.37 in 10.0 mi WNW 20.7 mph 26.5 mph 0.00 in   Clear
5:55 PM 1.4 °F -19.9 °F - N/A% 30.37 in 10.0 mi NW 19.6 mph 24.2 mph 0.00 in   Clear
6:15 PM 1.4 °F -18.8 °F -9.4 °F 61% 30.36 in 10.0 mi WNW 17.3 mph - 0.00 in   Clear
6:35 PM -0.4 °F -22.3 °F -11.2 °F 60% 30.36 in 10.0 mi WNW 19.6 mph 27.6 mph 0.00 in   Clear
6:55 PM -0.4 °F -19.2 °F -13.0 °F 55% 30.36 in 10.0 mi WNW 13.8 mph 23.0 mph 0.00 in   Clear
7:15 PM -0.4 °F -24.7 °F -13.0 °F 55% 30.36 in 10.0 mi WNW 25.3 mph 33.4 mph 0.00 in   Clear
7:35 PM -2.2 °F -27.6 °F -14.8 °F 55% 30.36 in 10.0 mi WNW 26.5 mph 32.2 mph 0.00 in   Clear
7:55 PM -2.2 °F -24.7 °F -14.8 °F 55% 30.37 in 10.0 mi WNW 19.6 mph 29.9 mph 0.00 in   Clear
8:15 PM -4.0 °F -30.0 °F -14.8 °F 60% 30.37 in 10.0 mi NW 26.5 mph 31.1 mph 0.00 in   Scattered Clouds
8:35 PM -5.8 °F -29.9 °F -16.6 °F 60% 30.37 in 10.0 mi NW 20.7 mph 26.5 mph 0.00 in   Scattered Clouds
8:55 PM -5.8 °F -29.9 °F -18.4 °F 55% 30.37 in 10.0 mi NW 20.7 mph 28.8 mph 0.00 in   Clear
9:15 PM -5.8 °F -31.5 °F -18.4 °F 55% 30.37 in 10.0 mi NW 24.2 mph 32.2 mph 0.00 in   Clear
9:35 PM -7.6 °F -33.9 °F -18.4 °F 59% 30.37 in 10.0 mi NW 24.2 mph 29.9 mph 0.00 in   Clear
9:55 PM -7.6 °F -31.1 °F -18.4 °F 59% 30.37 in 10.0 mi NW 18.4 mph 26.5 mph 0.00 in   Clear
10:15 PM -7.6 °F -31.1 °F -18.4 °F 59% 30.37 in 10.0 mi NW 18.4 mph 24.2 mph 0.00 in   Clear
10:35 PM -7.6 °F -30.5 °F -18.4 °F 59% 30.38 in 10.0 mi NW 17.3 mph - 0.00 in   Clear
10:55 PM -7.6 °F -31.1 °F -18.4 °F 59% 30.38 in 10.0 mi NW 18.4 mph 23.0 mph 0.00 in   Clear
11:15 PM -7.6 °F -28.3 °F -18.4 °F 59% 30.38 in 10.0 mi WNW 13.8 mph - 0.00 in   Clear
11:35 PM -7.6 °F -29.8 °F -18.4 °F 59% 30.38 in 10.0 mi NW 16.1 mph 23.0 mph 0.00 in   Clear
11:55 PM -7.6 °F -27.5 °F -18.4 °F 59% 30.38 in 10.0 mi WNW 12.7 mph - 0.00 in   Clear